EW7285 Weather Reports


Display with metric or nautical units.
time (UTC)temp
F
wind
direction
speed
MPH
gust
MPH
rain 1hr
in
rain 24hr
in
rain mn
in
humidity
%
barometer
mb
20260510153032 57 161 12.0 18.0 0.00 0.00 0.00 41 1006.3
20260510151526 57 171 10.0 17.0 0.00 0.00 0.00 43 1006.5
20260510150014 58 161 8.0 19.0 0.00 0.00 0.00 41 1006.7
20260510144512 57 186 6.0 17.0 0.00 0.00 0.00 40 1006.8
20260510143010 58 104 6.0 16.0 0.00 0.00 0.00 40 1007.0
20260510141508 59 154 10.0 21.0 0.00 0.00 0.00 40 1007.1
20260510140008 58 157 6.0 19.0 0.00 0.00 0.00 39 1007.2
20260510134505 59 123 9.0 18.0 0.00 0.00 0.00 38 1007.6
20260510133101 59 146 12.0 20.0 0.00 0.00 0.00 40 1007.8
20260510131557 59 138 12.0 19.0 0.00 0.00 0.00 39 1008.1
20260510130055 58 142 8.0 17.0 0.00 0.00 0.00 39 1008.4
20260510124608 58 179 13.0 19.0 0.00 0.00 0.00 39 1008.6
20260510123052 58 145 7.0 20.0 0.00 0.00 0.00 38 1008.8
20260510121550 58 140 11.0 22.0 0.00 0.00 0.00 37 1008.9
20260510120048 58 67 8.0 15.0 0.00 0.00 0.00 38 1009.1
20260510114546 58 148 11.0 23.0 0.00 0.00 0.00 37 1009.4
20260510113043 58 127 13.0 20.0 0.00 0.00 0.00 37 1009.7
20260510111540 57 177 11.0 19.0 0.00 0.00 0.00 36 1010.0
20260510110045 58 163 10.0 15.0 0.00 0.00 0.00 37 1010.2
20260510104535 57 167 14.0 19.0 0.00 0.00 0.00 36 1010.6
20260510103033 57 170 12.0 22.0 0.00 0.00 0.00 37 1010.7
20260510101537 57 172 12.0 18.0 0.00 0.00 0.00 37 1010.8
20260510100030 57 154 6.0 21.0 0.00 0.00 0.00 38 1011.0
20260510094528 57 155 10.0 19.0 0.00 0.00 0.00 38 1011.3
20260510093026 56 140 12.0 21.0 0.00 0.00 0.00 35 1011.4
20260510091528 57 133 11.0 22.0 0.00 0.00 0.00 35 1011.5
20260510090027 56 133 11.0 18.0 0.00 0.00 0.00 36 1011.7
20260510084518 56 162 6.0 18.0 0.00 0.00 0.00 38 1011.8
20260510083015 55 140 9.0 15.0 0.00 0.00 0.00 42 1012.2
20260510081511 55 148 7.0 14.0 0.00 0.00 0.00 44 1012.4
20260510080009 54 53 7.0 14.0 0.00 0.00 0.00 44 1012.6
20260510074505 53 107 5.0 15.0 0.00 0.00 0.00 47 1012.9
20260510073110 53 171 8.0 13.0 0.00 0.00 0.00 48 1013.1
20260510071556 52 121 6.0 15.0 0.00 0.00 0.00 46 1013.2
20260510070052 52 133 7.0 12.0 0.00 0.00 0.00 50 1013.5
20260510064549 51 167 9.0 13.0 0.00 0.00 0.00 50 1013.7
20260510063045 50 153 5.0 11.0 0.00 0.00 0.00 54 1013.9
20260510061542 50 161 9.0 13.0 0.00 0.00 0.00 55 1014.1
20260510060038 48 125 4.0 8.0 0.00 0.00 0.00 62 1014.1
20260510054535 47 74 4.0 9.0 0.00 0.00 0.00 66 1014.4
20260510053030 46 158 3.0 8.0 0.00 0.00 0.00 70 1014.5
20260510051526 45 138 1.0 6.0 0.00 0.00 0.00 73 1014.6
20260510050023 44 141 2.0 8.0 0.00 0.00 0.00 79 1014.7
20260510044520 41 71 1.0 4.0 0.00 0.00 0.00 92 1014.9
20260510043017 37 86 0.0 0.0 0.00 0.00 0.00 92 1015.1
20260510041515 34 86 0.0 0.0 0.00 0.00 0.00 92 1015.4
20260510040010 32 86 0.0 0.0 0.00 0.00 0.00 91 1015.5
20260510034514 32 86 0.0 0.0 0.00 0.00 0.00 92 1015.7
20260510033005 31 86 0.0 0.0 0.00 0.00 0.00 92 1016.1
20260510031502 30 111 0.0 0.0 0.00 0.00 0.00 92 1016.3
20260510030059 29 111 0.0 0.0 0.00 0.00 0.00 92 1016.4
20260510024605 29 111 0.0 0.0 0.00 0.00 0.00 91 1016.5
20260510023056 28 111 0.0 0.0 0.00 0.00 0.00 91 1016.7
20260510021552 29 111 0.0 0.0 0.00 0.00 0.00 91 1016.9
20260510020050 29 111 0.0 0.0 0.00 0.00 0.00 91 1017.1
20260510014547 30 111 0.0 0.0 0.00 0.00 0.00 91 1017.2
20260510013045 30 111 0.0 0.0 0.00 0.00 0.00 90 1017.3
20260510011541 30 111 0.0 0.0 0.00 0.00 0.00 90 1017.6
20260510010040 31 111 0.0 0.0 0.00 0.00 0.00 90 1017.7
20260510004536 31 111 0.0 0.0 0.00 0.00 0.00 90 1017.8
20260510003034 32 111 0.0 0.0 0.00 0.00 0.00 90 1017.9
20260510001531 32 111 0.0 0.0 0.00 0.00 0.00 90 1017.9
20260510000035 32 111 0.0 0.0 0.00 0.00 0.00 89 1018.1
20260509234537 33 111 0.0 2.0 0.00 0.00 0.00 89 1018.2
20260509233021 33 111 0.0 0.0 0.00 0.00 0.00 88 1018.5
20260509231518 34 111 0.0 0.0 0.00 0.00 0.00 87 1018.6
20260509230014 35 111 0.0 1.0 0.00 0.00 0.00 88 1018.9
20260509224526 35 111 0.0 3.0 0.00 0.00 0.00 86 1019.0
20260509223009 35 111 0.0 0.0 0.00 0.00 0.00 85 1019.1
20260509221506 36 111 0.0 0.0 0.00 0.00 0.00 84 1019.1
20260509220002 37 111 0.0 2.0 0.00 0.00 0.00 83 1019.4
20260509214501 38 111 0.0 1.0 0.00 0.00 0.00 81 1019.4
20260509213100 40 111 0.0 3.0 0.00 0.00 0.00 78 1019.5
20260509211557 42 111 0.0 3.0 0.00 0.00 0.00 76 1019.7
20260509204601 43 120 0.0 3.0 0.00 0.00 0.00 74 1020.0
20260509203105 43 96 2.0 5.0 0.00 0.00 0.00 72 1020.0
20260509201554 44 103 1.0 3.0 0.00 0.00 0.00 70 1020.2
20260509200052 44 123 2.0 6.0 0.00 0.00 0.00 68 1020.3
20260509194551 45 118 1.0 4.0 0.00 0.00 0.00 64 1020.3
20260509193051 45 110 0.0 4.0 0.00 0.00 0.00 61 1020.4
20260509191549 45 124 3.0 8.0 0.00 0.00 0.00 59 1020.4
20260509190049 46 153 0.0 7.0 0.00 0.00 0.00 58 1020.6
20260509184550 47 96 1.0 5.0 0.00 0.00 0.00 57 1020.6
20260509183048 47 66 1.0 4.0 0.00 0.00 0.00 55 1020.6
20260509181605 48 150 1.0 4.0 0.00 0.00 0.00 52 1020.7
20260509180110 49 115 3.0 8.0 0.00 0.00 0.00 51 1020.7
20260509174544 50 80 3.0 9.0 0.00 0.00 0.00 50 1020.8
20260509173054 50 109 2.0 11.0 0.00 0.00 0.00 48 1020.7
20260509171550 51 75 3.0 11.0 0.00 0.00 0.00 47 1020.8
20260509170050 52 98 1.0 9.0 0.00 0.00 0.00 47 1020.8
20260509164540 52 64 3.0 11.0 0.00 0.00 0.00 46 1020.9
20260509163039 52 72 5.0 14.0 0.00 0.00 0.00 46 1020.9
20260509161541 52 74 7.0 15.0 0.00 0.00 0.00 45 1021.1
20260509160035 53 158 8.0 16.0 0.00 0.00 0.00 45 1021.1
20260509154533 53 125 12.0 17.0 0.00 0.00 0.00 43 1021.3